When you browse on this site, cookies collect data to enhance your experience and personalize the content and advertising you see.
Visit our Privacy Policy to learn more. By continuing to use the site, you agree to this use of cookies and data.
  • en Belgique
  • Liste des pays
  • À 7 jours
  • Température de l'eau
  • Carte satellitaire
  • Carte météo
  • Widgets météo
  • user-avatar
    Se connecter

    Météo par heure à Vyazovik

    Ce jour, 22 Avril, Lundi

    Heure Température Précipitation Vent Pression Humidité
    00:00 +8°C° 0 mm 0 m/s 753 mmHg 43%
    01:00 +9°C° 0 mm 1 m/s 754 mmHg 44%
    02:00 +8°C° 0 mm 1 m/s 753 mmHg 44%
    03:00 +8°C° 0 mm 1 m/s 753 mmHg 45%
    04:00 +7°C° 0 mm 1 m/s 754 mmHg 47%
    05:00 +7°C° 0 mm 1 m/s 754 mmHg 48%
    06:00 +9°C° 0 mm 1 m/s 754 mmHg 45%
    07:00 +10°C° 0 mm 2 m/s 754 mmHg 41%
    08:00 +14°C° 0 mm 2 m/s 754 mmHg 37%
    09:00 +15°C° 0 mm 2 m/s 754 mmHg 34%
    10:00 +16°C° 0 mm 2 m/s 754 mmHg 30%
    11:00 +17°C° 0 mm 2 m/s 754 mmHg 27%
    12:00 +17°C° 0 mm 2 m/s 754 mmHg 27%
    13:00 +18°C° 0 mm 2 m/s 754 mmHg 28%
    14:00 +18°C° 0 mm 2 m/s 754 mmHg 28%
    15:00 +17°C° 0 mm 2 m/s 754 mmHg 31%
    16:00 +17°C° 0 mm 2 m/s 754 mmHg 33%
    17:00 +17°C° 0 mm 2 m/s 754 mmHg 35%
    18:00 +16°C° 0 mm 2 m/s 754 mmHg 37%
    19:00 +15°C° 0 mm 1 m/s 754 mmHg 39%
    20:00 +14°C° 0 mm 1 m/s 754 mmHg 41%
    21:00 +13°C° 0 mm 1 m/s 755 mmHg 43%
    22:00 +12°C° 0 mm 2 m/s 755 mmHg 46%
    23:00 +12°C° 0 mm 2 m/s 755 mmHg 49%

    Demain, 23 Avril, Mardi

    Heure Température Précipitation Vent Pression Humidité
    00:00 +10°C° 0 mm 2 m/s 755 mmHg 50%
    01:00 +11°C° 0 mm 1 m/s 755 mmHg 51%
    02:00 +11°C° 0 mm 1 m/s 755 mmHg 51%
    03:00 +11°C° 0 mm 1 m/s 755 mmHg 53%
    04:00 +11°C° 0 mm 1 m/s 755 mmHg 54%
    05:00 +11°C° 0 mm 1 m/s 755 mmHg 55%
    06:00 +12°C° 0 mm 1 m/s 756 mmHg 52%
    07:00 +13°C° 0 mm 1 m/s 756 mmHg 48%
    08:00 +15°C° 0 mm 1 m/s 756 mmHg 45%
    09:00 +15°C° 0 mm 2 m/s 756 mmHg 41%
    10:00 +16°C° 0 mm 2 m/s 756 mmHg 38%
    11:00 +17°C° 0 mm 2 m/s 756 mmHg 34%
    12:00 +17°C° 0 mm 2 m/s 756 mmHg 34%
    13:00 +17°C° 0 mm 3 m/s 756 mmHg 34%
    14:00 +18°C° 0 mm 3 m/s 756 mmHg 35%
    15:00 +17°C° 0 mm 3 m/s 755 mmHg 37%
    16:00 +17°C° 0 mm 2 m/s 755 mmHg 39%
    17:00 +17°C° 0 mm 2 m/s 755 mmHg 41%
    18:00 +15°C° 0 mm 2 m/s 755 mmHg 45%
    19:00 +14°C° 0 mm 2 m/s 755 mmHg 49%
    20:00 +13°C° 0 mm 2 m/s 755 mmHg 52%
    21:00 +11°C° 0 mm 3 m/s 755 mmHg 53%
    22:00 +11°C° 0 mm 3 m/s 755 mmHg 55%
    23:00 +11°C° 0 mm 3 m/s 755 mmHg 56%

    Après-demain, 24 Avril, Mercredi

    Heure Température Précipitation Vent Pression Humidité
    00:00 +11°C° 0 mm 3 m/s 755 mmHg 56%
    01:00 +11°C° 0 mm 3 m/s 755 mmHg 57%
    02:00 +11°C° 0 mm 3 m/s 755 mmHg 58%
    03:00 +11°C° 0 mm 3 m/s 755 mmHg 59%
    04:00 +10°C° 0 mm 3 m/s 755 mmHg 61%
    05:00 +10°C° 0 mm 3 m/s 755 mmHg 63%
    06:00 +11°C° 0 mm 3 m/s 755 mmHg 60%
    07:00 +13°C° 0 mm 3 m/s 756 mmHg 57%
    08:00 +14°C° 0 mm 3 m/s 756 mmHg 54%
    09:00 +17°C° 0 mm 4 m/s 755 mmHg 50%
    10:00 +18°C° 0 mm 4 m/s 755 mmHg 45%
    11:00 +20°C° 0 mm 4 m/s 755 mmHg 41%
    12:00 +20°C° 0 mm 4 m/s 755 mmHg 40%
    13:00 +21°C° 0 mm 4 m/s 755 mmHg 39%
    14:00 +21°C° 0 mm 4 m/s 755 mmHg 39%
    15:00 +21°C° 0 mm 4 m/s 754 mmHg 41%
    16:00 +21°C° 0 mm 3 m/s 754 mmHg 43%
    17:00 +20°C° 0 mm 3 m/s 754 mmHg 46%
    18:00 +19°C° 0 mm 3 m/s 754 mmHg 50%
    19:00 +17°C° 0 mm 2 m/s 754 mmHg 54%
    20:00 +15°C° 0 mm 2 m/s 754 mmHg 57%
    21:00 +15°C° 0 mm 2 m/s 754 mmHg 59%
    22:00 +14°C° 0 mm 2 m/s 754 mmHg 61%
    23:00 +14°C° 0 mm 2 m/s 754 mmHg 62%

    25 Avril, Jeudi

    Heure Température Précipitation Vent Pression Humidité
    00:00 +13°C° 0 mm 2 m/s 754 mmHg 64%
    01:00 +13°C° 0 mm 2 m/s 754 mmHg 65%
    02:00 +12°C° 0 mm 2 m/s 754 mmHg 67%
    03:00 +12°C° 0 mm 2 m/s 754 mmHg 68%
    04:00 +12°C° 0 mm 2 m/s 754 mmHg 69%
    05:00 +12°C° 0 mm 2 m/s 754 mmHg 70%
    06:00 +13°C° 0 mm 2 m/s 755 mmHg 65%
    07:00 +15°C° 0 mm 2 m/s 755 mmHg 59%
    08:00 +17°C° 0 mm 2 m/s 755 mmHg 53%
    09:00 +19°C° 0 mm 2 m/s 755 mmHg 48%
    10:00 +20°C° 0 mm 2 m/s 755 mmHg 44%
    11:00 +21°C° 0 mm 3 m/s 754 mmHg 39%
    12:00 +23°C° 0 mm 2 m/s 754 mmHg 38%
    13:00 +23°C° 0 mm 2 m/s 754 mmHg 36%
    14:00 +24°C° 0 mm 2 m/s 754 mmHg 34%
    15:00 +24°C° 0 mm 2 m/s 753 mmHg 36%
    16:00 +23°C° 0 mm 2 m/s 753 mmHg 38%
    17:00 +23°C° 0 mm 1 m/s 753 mmHg 41%
    18:00 +21°C° 0 mm 1 m/s 753 mmHg 44%
    19:00 +20°C° 0 mm 1 m/s 753 mmHg 47%
    20:00 +18°C° 0 mm 1 m/s 753 mmHg 51%
    21:00 +16°C° 0 mm 1 m/s 753 mmHg 53%
    22:00 +16°C° 0 mm 1 m/s 753 mmHg 55%
    23:00 +15°C° 0 mm 1 m/s 753 mmHg 58%

    26 Avril, Vendredi

    Heure Température Précipitation Vent Pression Humidité
    00:00 +15°C° 0 mm 1 m/s 753 mmHg 60%
    01:00 +14°C° 0 mm 1 m/s 753 mmHg 62%
    02:00 +14°C° 0 mm 1 m/s 753 mmHg 64%
    03:00 +14°C° 0 mm 1 m/s 753 mmHg 65%
    04:00 +13°C° 0 mm 1 m/s 752 mmHg 67%
    05:00 +13°C° 0 mm 1 m/s 752 mmHg 68%
    06:00 +15°C° 0 mm 1 m/s 753 mmHg 62%
    07:00 +18°C° 0 mm 1 m/s 753 mmHg 57%
    08:00 +19°C° 0 mm 1 m/s 753 mmHg 51%
    09:00 +21°C° 0 mm 1 m/s 753 mmHg 47%
    10:00 +21°C° 0 mm 2 m/s 752 mmHg 44%
    11:00 +23°C° 0 mm 2 m/s 752 mmHg 40%
    12:00 +23°C° 0 mm 2 m/s 752 mmHg 40%
    13:00 +23°C° 0 mm 2 m/s 752 mmHg 40%
    14:00 +23°C° 0 mm 2 m/s 752 mmHg 41%
    15:00 +23°C° 0 mm 2 m/s 751 mmHg 44%
    16:00 +22°C° 0 mm 1 m/s 751 mmHg 47%
    17:00 +22°C° 0 mm 1 m/s 751 mmHg 50%
    18:00 +21°C° 0 mm 1 m/s 751 mmHg 53%
    19:00 +20°C° 0 mm 1 m/s 751 mmHg 55%
    20:00 +18°C° 0 mm 1 m/s 751 mmHg 58%
    21:00 +18°C° 0.4 mm 1 m/s 751 mmHg 62%
    22:00 +16°C° 0.4 mm 1 m/s 750 mmHg 66%
    23:00 +15°C° 0.4 mm 1 m/s 750 mmHg 70%

    27 Avril, Samedi

    Heure Température Précipitation Vent Pression Humidité
    00:00 +15°C° 1 mm 1 m/s 750 mmHg 74%
    01:00 +14°C° 1 mm 1 m/s 750 mmHg 77%
    02:00 +14°C° 1 mm 1 m/s 750 mmHg 81%
    03:00 +14°C° 0.1 mm 1 m/s 750 mmHg 81%
    04:00 +14°C° 0.1 mm 1 m/s 750 mmHg 81%
    05:00 +12°C° 0.1 mm 0 m/s 750 mmHg 80%
    06:00 +15°C° 0.1 mm 1 m/s 750 mmHg 75%
    07:00 +18°C° 0.1 mm 1 m/s 750 mmHg 69%
    08:00 +19°C° 0.1 mm 1 m/s 750 mmHg 63%
    09:00 +19°C° 0 mm 2 m/s 750 mmHg 57%
    10:00 +20°C° 0 mm 2 m/s 749 mmHg 51%
    11:00 +23°C° 0 mm 2 m/s 749 mmHg 45%
    12:00 +21°C° 0 mm 3 m/s 749 mmHg 46%
    13:00 +21°C° 0 mm 3 m/s 749 mmHg 48%
    14:00 +21°C° 0 mm 3 m/s 748 mmHg 50%
    15:00 +21°C° 0 mm 3 m/s 748 mmHg 52%
    16:00 +20°C° 0 mm 3 m/s 748 mmHg 54%
    17:00 +20°C° 0 mm 2 m/s 748 mmHg 56%
    18:00 +19°C° 0 mm 2 m/s 748 mmHg 58%
    19:00 +18°C° 0 mm 2 m/s 748 mmHg 60%
    20:00 +17°C° 0 mm 2 m/s 748 mmHg 63%
    21:00 +16°C° 0 mm 3 m/s 748 mmHg 63%
    22:00 +16°C° 0 mm 3 m/s 748 mmHg 64%
    23:00 +16°C° 0 mm 3 m/s 747 mmHg 64%
    Voir plus